| time (UTC) | temp F | wind direction | speed MPH | gust MPH | rain 1hr in | rain 24hr in | rain mn in | humidity % | barometer mb |
| 20260903123521 | 54 | 27 | 0.0 | 2.0 | 0.02 | 0.23 | 0.12 | 90 | 1007.6 |
| 20260903123042 | 54 | 19 | 0.0 | 2.0 | 0.03 | 0.23 | 0.12 | 90 | 1007.5 |
| 20260903122520 | 54 | 0 | 0.0 | 5.0 | 0.03 | 0.23 | 0.12 | 90 | 1007.7 |
| 20260903122021 | 54 | 0 | 0.0 | 5.0 | 0.03 | 0.23 | 0.12 | 90 | 1007.7 |
| 20260903121552 | 54 | 240 | 0.0 | 4.0 | 0.04 | 0.23 | 0.12 | 90 | 1007.6 |
| 20260903121020 | 54 | 262 | 0.0 | 4.0 | 0.04 | 0.23 | 0.12 | 89 | 1007.6 |
| 20260903120518 | 54 | 0 | 0.0 | 2.0 | 0.04 | 0.23 | 0.12 | 90 | 1007.6 |
| 20260903120038 | 54 | 0 | 0.0 | 3.0 | 0.05 | 0.23 | 0.12 | 90 | 1007.7 |
| 20260903115516 | 54 | 228 | 0.0 | 3.0 | 0.05 | 0.22 | 0.11 | 90 | 1007.6 |
| 20260903115018 | 54 | 247 | 0.0 | 1.0 | 0.05 | 0.22 | 0.11 | 90 | 1007.6 |
| 20260903114538 | 54 | 248 | 0.0 | 2.0 | 0.05 | 0.22 | 0.11 | 90 | 1007.6 |
| 20260903114020 | 54 | 0 | 0.0 | 2.0 | 0.05 | 0.21 | 0.10 | 90 | 1007.7 |
| 20260903113520 | 54 | 0 | 0.0 | 2.0 | 0.05 | 0.21 | 0.10 | 90 | 1007.6 |
| 20260903113038 | 53 | 0 | 0.0 | 1.0 | 0.05 | 0.20 | 0.09 | 89 | 1007.6 |
| 20260903112525 | 53 | 0 | 0.0 | 0.0 | 0.05 | 0.20 | 0.09 | 89 | 1007.6 |
| 20260903112021 | 53 | 0 | 0.0 | 0.0 | 0.04 | 0.19 | 0.08 | 89 | 1007.6 |
| 20260903111541 | 53 | 0 | 0.0 | 0.0 | 0.05 | 0.19 | 0.08 | 89 | 1007.6 |
| 20260903111017 | 53 | 0 | 0.0 | 0.0 | 0.05 | 0.19 | 0.08 | 89 | 1007.5 |
| 20260903110519 | 53 | 0 | 0.0 | 0.0 | 0.05 | 0.19 | 0.08 | 89 | 1007.6 |
| 20260903110035 | 53 | 0 | 0.0 | 0.0 | 0.04 | 0.18 | 0.07 | 89 | 1007.6 |
| 20260903105523 | 53 | 0 | 0.0 | 0.0 | 0.03 | 0.17 | 0.06 | 89 | 1007.6 |
| 20260903105021 | 53 | 0 | 0.0 | 0.0 | 0.03 | 0.17 | 0.06 | 89 | 1007.6 |
| 20260903104549 | 53 | 0 | 0.0 | 0.0 | 0.02 | 0.16 | 0.05 | 89 | 1007.7 |
| 20260903104020 | 53 | 0 | 0.0 | 0.0 | 0.02 | 0.16 | 0.05 | 89 | 1007.5 |
| 20260903103520 | 53 | 0 | 0.0 | 0.0 | 0.01 | 0.15 | 0.04 | 89 | 1007.6 |
| 20260903103039 | 53 | 0 | 0.0 | 0.0 | 0.01 | 0.15 | 0.04 | 89 | 1007.6 |
| 20260903102520 | 52 | 0 | 0.0 | 0.0 | 0.01 | 0.15 | 0.04 | 89 | 1007.6 |
| 20260903102022 | 52 | 0 | 0.0 | 0.0 | 0.00 | 0.14 | 0.03 | 89 | 1007.6 |
| 20260903101547 | 52 | 0 | 0.0 | 0.0 | 0.00 | 0.14 | 0.03 | 89 | 1007.5 |
| 20260903101019 | 52 | 0 | 0.0 | 0.0 | 0.00 | 0.14 | 0.03 | 89 | 1007.5 |
| 20260903100517 | 52 | 0 | 0.0 | 0.0 | 0.00 | 0.14 | 0.03 | 89 | 1007.5 |
| 20260903100042 | 52 | 0 | 0.0 | 0.0 | 0.00 | 0.14 | 0.03 | 89 | 1007.4 |
| 20260903095520 | 52 | 0 | 0.0 | 0.0 | 0.00 | 0.14 | 0.03 | 89 | 1007.3 |
| 20260903095024 | 52 | 0 | 0.0 | 0.0 | 0.00 | 0.14 | 0.03 | 89 | 1007.3 |
| 20260903094536 | 52 | 0 | 0.0 | 0.0 | 0.00 | 0.14 | 0.03 | 89 | 1007.4 |
| 20260903094021 | 52 | 0 | 0.0 | 0.0 | 0.00 | 0.14 | 0.03 | 89 | 1007.4 |
| 20260903093527 | 52 | 0 | 0.0 | 0.0 | 0.00 | 0.14 | 0.03 | 89 | 1007.3 |
| 20260903093038 | 52 | 0 | 0.0 | 0.0 | 0.00 | 0.14 | 0.03 | 89 | 1007.4 |
| 20260903092520 | 52 | 0 | 0.0 | 0.0 | 0.00 | 0.14 | 0.03 | 89 | 1007.4 |
| 20260903092021 | 52 | 0 | 0.0 | 0.0 | 0.00 | 0.14 | 0.03 | 89 | 1007.5 |
| 20260903091551 | 52 | 0 | 0.0 | 0.0 | 0.00 | 0.14 | 0.03 | 89 | 1007.5 |
| 20260903091019 | 52 | 0 | 0.0 | 0.0 | 0.00 | 0.14 | 0.03 | 89 | 1007.5 |
| 20260903090516 | 52 | 0 | 0.0 | 0.0 | 0.00 | 0.14 | 0.03 | 89 | 1007.5 |
| 20260903090036 | 52 | 0 | 0.0 | 0.0 | 0.00 | 0.14 | 0.03 | 89 | 1007.5 |
| 20260903085532 | 52 | 0 | 0.0 | 0.0 | 0.00 | 0.14 | 0.03 | 89 | 1007.6 |
| 20260903085018 | 52 | 0 | 0.0 | 0.0 | 0.00 | 0.14 | 0.03 | 89 | 1007.6 |
| 20260903084537 | 52 | 0 | 0.0 | 0.0 | 0.00 | 0.14 | 0.03 | 89 | 1007.4 |
| 20260903084023 | 52 | 0 | 0.0 | 0.0 | 0.00 | 0.14 | 0.03 | 89 | 1007.5 |
| 20260903083518 | 52 | 0 | 0.0 | 0.0 | 0.00 | 0.14 | 0.03 | 89 | 1007.5 |
| 20260903083037 | 52 | 0 | 0.0 | 0.0 | 0.01 | 0.14 | 0.03 | 89 | 1007.5 |
| 20260903082518 | 52 | 0 | 0.0 | 0.0 | 0.02 | 0.14 | 0.03 | 89 | 1007.5 |
| 20260903082018 | 52 | 0 | 0.0 | 0.0 | 0.02 | 0.14 | 0.03 | 89 | 1007.4 |
| 20260903081539 | 52 | 0 | 0.0 | 0.0 | 0.02 | 0.14 | 0.03 | 89 | 1007.5 |
| 20260903081020 | 52 | 0 | 0.0 | 0.0 | 0.03 | 0.14 | 0.03 | 89 | 1007.5 |
| 20260903080522 | 52 | 0 | 0.0 | 0.0 | 0.03 | 0.14 | 0.03 | 89 | 1007.5 |
| 20260903080042 | 52 | 0 | 0.0 | 0.0 | 0.03 | 0.14 | 0.03 | 89 | 1007.5 |
| 20260903075524 | 52 | 0 | 0.0 | 0.0 | 0.03 | 0.14 | 0.03 | 89 | 1007.4 |
| 20260903075020 | 52 | 0 | 0.0 | 0.0 | 0.03 | 0.14 | 0.03 | 89 | 1007.5 |
| 20260903074540 | 52 | 0 | 0.0 | 0.0 | 0.03 | 0.14 | 0.03 | 89 | 1007.5 |
| 20260903074017 | 52 | 0 | 0.0 | 0.0 | 0.03 | 0.14 | 0.03 | 89 | 1007.4 |
| 20260903073516 | 51 | 0 | 0.0 | 0.0 | 0.03 | 0.14 | 0.03 | 89 | 1007.4 |
| 20260903073039 | 51 | 0 | 0.0 | 0.0 | 0.02 | 0.13 | 0.02 | 89 | 1007.4 |
| 20260903072518 | 51 | 0 | 0.0 | 0.0 | 0.01 | 0.12 | 0.01 | 89 | 1007.4 |
| 20260903072021 | 51 | 0 | 0.0 | 0.0 | 0.01 | 0.12 | 0.01 | 89 | 1007.4 |
| 20260903071537 | 51 | 0 | 0.0 | 0.0 | 0.01 | 0.12 | 0.01 | 89 | 1007.4 |
| 20260903071022 | 51 | 0 | 0.0 | 0.0 | 0.00 | 0.11 | 0.00 | 89 | 1007.3 |
| 20260903070520 | 51 | 0 | 0.0 | 0.0 | 0.00 | 0.11 | 0.00 | 89 | 1007.3 |
| 20260903070037 | 51 | 0 | 0.0 | 0.0 | 0.00 | 0.11 | 0.00 | 89 | 1007.2 |
| 20260903065521 | 51 | 0 | 0.0 | 0.0 | 0.00 | 0.11 | 0.11 | 89 | 1007.4 |
| 20260903065021 | 51 | 0 | 0.0 | 0.0 | 0.00 | 0.11 | 0.11 | 89 | 1007.2 |
| 20260903064536 | 51 | 0 | 0.0 | 0.0 | 0.00 | 0.11 | 0.11 | 88 | 1007.2 |
| 20260903064024 | 51 | 0 | 0.0 | 0.0 | 0.00 | 0.11 | 0.11 | 88 | 1007.3 |
| 20260903063521 | 51 | 0 | 0.0 | 0.0 | 0.00 | 0.11 | 0.11 | 88 | 1007.3 |
| 20260903063036 | 51 | 0 | 0.0 | 0.0 | 0.00 | 0.11 | 0.11 | 88 | 1007.2 |
| 20260903062518 | 51 | 0 | 0.0 | 0.0 | 0.00 | 0.11 | 0.11 | 88 | 1007.3 |
| 20260903062021 | 51 | 0 | 0.0 | 0.0 | 0.00 | 0.11 | 0.11 | 88 | 1007.3 |
| 20260903061537 | 51 | 0 | 0.0 | 0.0 | 0.00 | 0.11 | 0.11 | 88 | 1007.3 |
| 20260903061024 | 51 | 0 | 0.0 | 0.0 | 0.00 | 0.11 | 0.11 | 88 | 1007.3 |
| 20260903060521 | 51 | 0 | 0.0 | 0.0 | 0.00 | 0.11 | 0.11 | 88 | 1007.3 |
| 20260903060056 | 51 | 0 | 0.0 | 0.0 | 0.00 | 0.11 | 0.11 | 88 | 1007.3 |
| 20260903055521 | 51 | 0 | 0.0 | 0.0 | 0.00 | 0.11 | 0.11 | 88 | 1007.3 |
| 20260903055020 | 51 | 0 | 0.0 | 0.0 | 0.00 | 0.11 | 0.11 | 88 | 1007.3 |
| 20260903054536 | 51 | 0 | 0.0 | 0.0 | 0.00 | 0.11 | 0.11 | 88 | 1007.3 |
| 20260903054021 | 51 | 0 | 0.0 | 0.0 | 0.00 | 0.11 | 0.11 | 88 | 1007.3 |
| 20260903053521 | 51 | 0 | 0.0 | 0.0 | 0.00 | 0.11 | 0.11 | 88 | 1007.3 |
| 20260903053038 | 51 | 0 | 0.0 | 0.0 | 0.00 | 0.11 | 0.11 | 87 | 1007.3 |
| 20260903052521 | 51 | 0 | 0.0 | 0.0 | 0.00 | 0.11 | 0.11 | 87 | 1007.2 |
| 20260903052017 | 52 | 0 | 0.0 | 0.0 | 0.00 | 0.11 | 0.11 | 87 | 1007.2 |
| 20260903051540 | 52 | 0 | 0.0 | 0.0 | 0.00 | 0.11 | 0.11 | 87 | 1007.3 |
| 20260903051021 | 52 | 0 | 0.0 | 0.0 | 0.00 | 0.11 | 0.11 | 87 | 1007.1 |
| 20260903050521 | 52 | 0 | 0.0 | 0.0 | 0.00 | 0.11 | 0.11 | 86 | 1007.2 |
| 20260903050044 | 52 | 0 | 0.0 | 0.0 | 0.00 | 0.11 | 0.11 | 86 | 1007.2 |
| 20260903045520 | 53 | 0 | 0.0 | 0.0 | 0.00 | 0.11 | 0.11 | 86 | 1007.3 |
| 20260903045023 | 53 | 0 | 0.0 | 0.0 | 0.00 | 0.11 | 0.11 | 86 | 1007.2 |
| 20260903044538 | 53 | 0 | 0.0 | 0.0 | 0.00 | 0.11 | 0.11 | 86 | 1007.2 |
| 20260903044026 | 53 | 0 | 0.0 | 0.0 | 0.00 | 0.11 | 0.11 | 86 | 1007.1 |
| 20260903043520 | 53 | 0 | 0.0 | 0.0 | 0.00 | 0.11 | 0.11 | 86 | 1007.0 |
| 20260903043036 | 53 | 0 | 0.0 | 0.0 | 0.00 | 0.11 | 0.11 | 86 | 1007.0 |
| 20260903042520 | 54 | 0 | 0.0 | 0.0 | 0.00 | 0.11 | 0.11 | 85 | 1007.0 |
| 20260903042020 | 54 | 0 | 0.0 | 0.0 | 0.00 | 0.11 | 0.11 | 85 | 1007.0 |
| 20260903041539 | 54 | 0 | 0.0 | 0.0 | 0.00 | 0.11 | 0.11 | 85 | 1007.0 |
| 20260903041021 | 54 | 0 | 0.0 | 2.0 | 0.00 | 0.11 | 0.11 | 84 | 1006.9 |
| 20260903040518 | 54 | 0 | 0.0 | 2.0 | 0.00 | 0.11 | 0.11 | 84 | 1007.0 |
| 20260903040038 | 55 | 0 | 0.0 | 2.0 | 0.00 | 0.11 | 0.11 | 84 | 1006.8 |
| 20260903035518 | 55 | 0 | 0.0 | 0.0 | 0.00 | 0.11 | 0.11 | 83 | 1006.9 |
| 20260903035020 | 55 | 0 | 0.0 | 0.0 | 0.00 | 0.11 | 0.11 | 83 | 1006.9 |
| 20260903034538 | 56 | 0 | 0.0 | 0.0 | 0.00 | 0.11 | 0.11 | 83 | 1006.8 |
| 20260903034025 | 56 | 0 | 0.0 | 0.0 | 0.00 | 0.11 | 0.11 | 82 | 1006.8 |
| 20260903033517 | 56 | 0 | 0.0 | 0.0 | 0.00 | 0.11 | 0.11 | 82 | 1006.7 |
| 20260903033043 | 56 | 0 | 0.0 | 0.0 | 0.00 | 0.11 | 0.11 | 82 | 1006.5 |
| 20260903032524 | 57 | 0 | 0.0 | 0.0 | 0.00 | 0.11 | 0.11 | 82 | 1006.5 |
| 20260903032020 | 57 | 0 | 0.0 | 0.0 | 0.00 | 0.11 | 0.11 | 81 | 1006.5 |
| 20260903031541 | 57 | 0 | 0.0 | 2.0 | 0.00 | 0.11 | 0.11 | 80 | 1006.4 |
| 20260903031021 | 57 | 0 | 0.0 | 2.0 | 0.00 | 0.11 | 0.11 | 80 | 1006.4 |
| 20260903030521 | 57 | 0 | 0.0 | 0.0 | 0.00 | 0.11 | 0.11 | 80 | 1006.4 |
| 20260903030047 | 58 | 0 | 0.0 | 0.0 | 0.00 | 0.11 | 0.11 | 80 | 1006.2 |
| 20260903025520 | 58 | 0 | 0.0 | 2.0 | 0.00 | 0.11 | 0.11 | 79 | 1006.1 |
| 20260903025020 | 58 | 0 | 0.0 | 2.0 | 0.00 | 0.11 | 0.11 | 79 | 1006.1 |
| 20260903024538 | 58 | 0 | 0.0 | 5.0 | 0.00 | 0.11 | 0.11 | 79 | 1006.0 |
| 20260903024020 | 58 | 241 | 1.0 | 4.0 | 0.00 | 0.11 | 0.11 | 79 | 1006.0 |
| 20260903023528 | 59 | 264 | 0.0 | 3.0 | 0.00 | 0.11 | 0.11 | 79 | 1005.9 |
| 20260903023041 | 59 | 0 | 0.0 | 5.0 | 0.00 | 0.11 | 0.11 | 78 | 1005.9 |
| 20260903022517 | 59 | 239 | 1.0 | 5.0 | 0.00 | 0.11 | 0.11 | 78 | 1005.7 |
| 20260903022020 | 60 | 0 | 1.0 | 4.0 | 0.00 | 0.11 | 0.11 | 78 | 1005.7 |
| 20260903021546 | 60 | 0 | 0.0 | 3.0 | 0.00 | 0.11 | 0.11 | 78 | 1005.6 |
| 20260903021021 | 60 | 228 | 1.0 | 3.0 | 0.00 | 0.11 | 0.11 | 77 | 1005.7 |
| 20260903020521 | 60 | 226 | 1.0 | 10.0 | 0.00 | 0.11 | 0.11 | 78 | 1005.7 |
| 20260903020037 | 60 | 183 | 1.0 | 10.0 | 0.00 | 0.11 | 0.11 | 77 | 1005.7 |
| 20260903015521 | 60 | 219 | 1.0 | 8.0 | 0.00 | 0.11 | 0.11 | 78 | 1005.7 |
| 20260903015020 | 60 | 0 | 0.0 | 8.0 | 0.00 | 0.11 | 0.11 | 78 | 1005.6 |
| 20260903014542 | 60 | 224 | 0.0 | 7.0 | 0.00 | 0.11 | 0.11 | 78 | 1005.7 |
| 20260903014025 | 60 | 209 | 2.0 | 7.0 | 0.00 | 0.11 | 0.11 | 78 | 1005.7 |
| 20260903013527 | 61 | 0 | 0.0 | 5.0 | 0.00 | 0.11 | 0.11 | 78 | 1005.7 |
| 20260903013041 | 61 | 236 | 0.0 | 5.0 | 0.00 | 0.11 | 0.11 | 78 | 1005.6 |
| 20260903012522 | 61 | 207 | 0.0 | 7.0 | 0.00 | 0.11 | 0.11 | 78 | 1005.6 |
| 20260903012019 | 61 | 0 | 0.0 | 7.0 | 0.00 | 0.11 | 0.11 | 78 | 1005.6 |
| 20260903011551 | 61 | 237 | 2.0 | 5.0 | 0.00 | 0.11 | 0.11 | 77 | 1005.4 |
| 20260903011022 | 62 | 245 | 2.0 | 6.0 | 0.00 | 0.11 | 0.11 | 76 | 1005.4 |
| 20260903010526 | 62 | 5 | 1.0 | 12.0 | 0.00 | 0.11 | 0.11 | 76 | 1005.4 |
| 20260903010037 | 62 | 247 | 3.0 | 12.0 | 0.00 | 0.11 | 0.11 | 76 | 1005.4 |
| 20260903005521 | 62 | 215 | 1.0 | 9.0 | 0.00 | 0.11 | 0.11 | 77 | 1005.4 |
| 20260903005020 | 62 | 0 | 1.0 | 7.0 | 0.00 | 0.11 | 0.11 | 78 | 1005.4 |
| 20260903004539 | 61 | 213 | 1.0 | 4.0 | 0.00 | 0.11 | 0.11 | 80 | 1005.4 |
| 20260903004020 | 61 | 236 | 1.0 | 4.0 | 0.00 | 0.11 | 0.11 | 79 | 1005.5 |
| 20260903003521 | 61 | 248 | 1.0 | 4.0 | 0.00 | 0.11 | 0.11 | 79 | 1005.4 |
| 20260903003036 | 61 | 215 | 1.0 | 5.0 | 0.00 | 0.11 | 0.11 | 79 | 1005.4 |
| 20260903002521 | 61 | 173 | 1.0 | 7.0 | 0.00 | 0.11 | 0.11 | 80 | 1005.4 |
| 20260903002018 | 60 | 235 | 0.0 | 7.0 | 0.00 | 0.11 | 0.11 | 81 | 1005.4 |
| 20260903001537 | 59 | 234 | 2.0 | 7.0 | 0.00 | 0.11 | 0.11 | 81 | 1005.5 |
| 20260903001020 | 59 | 5 | 2.0 | 7.0 | 0.00 | 0.11 | 0.11 | 80 | 1005.4 |
| 20260903000524 | 60 | 216 | 2.0 | 11.0 | 0.00 | 0.11 | 0.11 | 81 | 1005.4 |
| 20260903000049 | 60 | 198 | 3.0 | 11.0 | 0.00 | 0.11 | 0.11 | 81 | 1005.4 |
| 20260902235521 | 61 | 287 | 1.0 | 9.0 | 0.00 | 0.11 | 0.11 | 85 | 1005.2 |
| 20260902235021 | 61 | 281 | 2.0 | 10.0 | 0.00 | 0.11 | 0.11 | 84 | 1005.0 |
| 20260902234543 | 61 | 275 | 2.0 | 13.0 | 0.00 | 0.11 | 0.11 | 85 | 1004.9 |
| 20260902234022 | 60 | 228 | 3.0 | 13.0 | 0.00 | 0.11 | 0.11 | 86 | 1004.8 |
| 20260902233524 | 60 | 227 | 2.0 | 11.0 | 0.00 | 0.11 | 0.11 | 87 | 1004.7 |
| 20260902233049 | 60 | 271 | 1.0 | 6.0 | 0.00 | 0.11 | 0.11 | 87 | 1004.6 |
| 20260902232521 | 59 | 259 | 1.0 | 10.0 | 0.00 | 0.11 | 0.11 | 88 | 1004.5 |
| 20260902232016 | 59 | 275 | 1.0 | 10.0 | 0.00 | 0.11 | 0.11 | 88 | 1004.3 |
| 20260902231539 | 59 | 195 | 2.0 | 5.0 | 0.00 | 0.11 | 0.11 | 89 | 1004.3 |
| 20260902231018 | 59 | 74 | 1.0 | 5.0 | 0.00 | 0.11 | 0.11 | 89 | 1004.2 |
| 20260902230526 | 58 | 39 | 1.0 | 2.0 | 0.00 | 0.11 | 0.11 | 89 | 1004.2 |
| 20260902230041 | 58 | 0 | 0.0 | 2.0 | 0.00 | 0.11 | 0.11 | 89 | 1004.3 |
| 20260902225523 | 58 | 115 | 1.0 | 6.0 | 0.00 | 0.11 | 0.11 | 88 | 1004.2 |
| 20260902225021 | 58 | 150 | 1.0 | 6.0 | 0.00 | 0.11 | 0.11 | 88 | 1004.2 |
| 20260902224537 | 58 | 239 | 1.0 | 7.0 | 0.00 | 0.11 | 0.11 | 88 | 1004.1 |
| 20260902224020 | 58 | 167 | 2.0 | 7.0 | 0.00 | 0.11 | 0.11 | 88 | 1003.9 |
| 20260902223520 | 58 | 25 | 2.0 | 6.0 | 0.00 | 0.11 | 0.11 | 88 | 1003.9 |
| 20260902223041 | 58 | 10 | 2.0 | 4.0 | 0.00 | 0.11 | 0.11 | 89 | 1003.9 |
| 20260902222519 | 57 | 29 | 1.0 | 4.0 | 0.01 | 0.11 | 0.11 | 89 | 1003.7 |
| 20260902222018 | 57 | 75 | 1.0 | 4.0 | 0.01 | 0.11 | 0.11 | 89 | 1003.7 |
| 20260902221538 | 57 | 0 | 1.0 | 4.0 | 0.01 | 0.11 | 0.11 | 89 | 1003.7 |
| 20260902221021 | 57 | 0 | 1.0 | 2.0 | 0.02 | 0.11 | 0.11 | 89 | 1003.7 |
| 20260902220521 | 57 | 0 | 0.0 | 2.0 | 0.02 | 0.11 | 0.11 | 89 | 1003.8 |
| 20260902220044 | 57 | 30 | 0.0 | 2.0 | 0.02 | 0.11 | 0.11 | 89 | 1003.8 |
| 20260902215520 | 57 | 255 | 0.0 | 2.0 | 0.02 | 0.11 | 0.11 | 89 | 1003.8 |
| 20260902215017 | 57 | 0 | 0.0 | 2.0 | 0.03 | 0.11 | 0.11 | 88 | 1003.9 |
| 20260902214558 | 57 | 0 | 0.0 | 3.0 | 0.03 | 0.11 | 0.11 | 88 | 1003.9 |
| 20260902214018 | 57 | 0 | 0.0 | 3.0 | 0.04 | 0.11 | 0.11 | 88 | 1004.0 |
| 20260902213518 | 57 | 0 | 0.0 | 2.0 | 0.04 | 0.11 | 0.11 | 88 | 1004.1 |
| 20260902213040 | 57 | 100 | 1.0 | 2.0 | 0.04 | 0.11 | 0.11 | 88 | 1004.0 |
| 20260902212523 | 57 | 352 | 0.0 | 2.0 | 0.04 | 0.10 | 0.10 | 88 | 1004.1 |
| 20260902212018 | 57 | 340 | 0.0 | 2.0 | 0.05 | 0.10 | 0.10 | 88 | 1004.2 |
| 20260902211538 | 58 | 0 | 0.0 | 2.0 | 0.05 | 0.10 | 0.10 | 88 | 1004.2 |
| 20260902211022 | 58 | 9 | 0.0 | 2.0 | 0.05 | 0.09 | 0.09 | 88 | 1004.3 |
| 20260902210524 | 58 | 5 | 0.0 | 2.0 | 0.05 | 0.09 | 0.09 | 88 | 1004.2 |
| 20260902210036 | 58 | 44 | 0.0 | 2.0 | 0.05 | 0.09 | 0.09 | 88 | 1004.1 |
| 20260902205522 | 58 | 50 | 0.0 | 2.0 | 0.06 | 0.09 | 0.09 | 87 | 1004.3 |
| 20260902205020 | 58 | 173 | 0.0 | 7.0 | 0.06 | 0.08 | 0.08 | 87 | 1004.4 |
| 20260902204537 | 58 | 0 | 1.0 | 7.0 | 0.06 | 0.08 | 0.08 | 87 | 1004.5 |
| 20260902204020 | 59 | 0 | 0.0 | 2.0 | 0.06 | 0.07 | 0.07 | 87 | 1004.4 |
| 20260902203516 | 59 | 0 | 0.0 | 2.0 | 0.06 | 0.07 | 0.07 | 87 | 1004.5 |
| 20260902203040 | 59 | 0 | 0.0 | 2.0 | 0.06 | 0.07 | 0.07 | 87 | 1004.6 |
| 20260902202521 | 59 | 0 | 0.0 | 2.0 | 0.06 | 0.06 | 0.06 | 87 | 1004.6 |
| 20260902202021 | 59 | 0 | 0.0 | 4.0 | 0.05 | 0.05 | 0.05 | 86 | 1004.6 |
| 20260902201541 | 59 | 11 | 0.0 | 4.0 | 0.05 | 0.05 | 0.05 | 86 | 1004.6 |
| 20260902201020 | 60 | 84 | 1.0 | 4.0 | 0.04 | 0.04 | 0.04 | 86 | 1004.7 |
| 20260902200522 | 60 | 0 | 0.0 | 2.0 | 0.04 | 0.04 | 0.04 | 86 | 1004.7 |
| 20260902200039 | 60 | 93 | 1.0 | 2.0 | 0.03 | 0.03 | 0.03 | 85 | 1004.9 |
| 20260902195524 | 60 | 65 | 0.0 | 2.0 | 0.03 | 0.03 | 0.03 | 85 | 1004.8 |
| 20260902195022 | 61 | 84 | 0.0 | 2.0 | 0.02 | 0.02 | 0.02 | 85 | 1004.9 |
| 20260902194541 | 61 | 0 | 0.0 | 2.0 | 0.02 | 0.02 | 0.02 | 85 | 1004.9 |
| 20260902194020 | 61 | 0 | 0.0 | 2.0 | 0.01 | 0.01 | 0.01 | 84 | 1004.8 |
| 20260902193520 | 61 | 0 | 0.0 | 2.0 | 0.01 | 0.01 | 0.01 | 83 | 1004.7 |
| 20260902193038 | 62 | 55 | 0.0 | 3.0 | 0.01 | 0.01 | 0.01 | 83 | 1004.8 |
| 20260902192519 | 62 | 261 | 1.0 | 3.0 | 0.00 | 0.00 | 0.00 | 81 | 1004.8 |
| 20260902192021 | 62 | 321 | 0.0 | 10.0 | 0.00 | 0.00 | 0.00 | 81 | 1004.9 |
| 20260902191541 | 62 | 309 | 1.0 | 10.0 | 0.00 | 0.00 | 0.00 | 79 | 1005.0 |
| 20260902191021 | 63 | 148 | 1.0 | 4.0 | 0.00 | 0.00 | 0.00 | 81 | 1004.9 |
| 20260902190523 | 63 | 0 | 0.0 | 5.0 | 0.00 | 0.00 | 0.00 | 81 | 1005.0 |
| 20260902190039 | 63 | 0 | 1.0 | 5.0 | 0.00 | 0.00 | 0.00 | 80 | 1005.0 |
| 20260902185521 | 63 | 0 | 0.0 | 7.0 | 0.00 | 0.00 | 0.00 | 79 | 1005.0 |
| 20260902185024 | 63 | 327 | 2.0 | 10.0 | 0.00 | 0.00 | 0.00 | 77 | 1005.0 |
| 20260902184544 | 63 | 198 | 1.0 | 10.0 | 0.00 | 0.00 | 0.00 | 78 | 1005.1 |
| 20260902184023 | 64 | 157 | 0.0 | 8.0 | 0.00 | 0.00 | 0.00 | 78 | 1005.1 |
| 20260902183516 | 64 | 290 | 1.0 | 8.0 | 0.00 | 0.00 | 0.00 | 77 | 1005.0 |
| 20260902183044 | 64 | 235 | 3.0 | 7.0 | 0.00 | 0.00 | 0.00 | 77 | 1005.1 |
| 20260902182517 | 64 | 236 | 1.0 | 5.0 | 0.00 | 0.00 | 0.00 | 78 | 1005.2 |
| 20260902182019 | 63 | 234 | 0.0 | 7.0 | 0.00 | 0.00 | 0.00 | 79 | 1005.1 |
| 20260902181541 | 63 | 235 | 0.0 | 5.0 | 0.00 | 0.00 | 0.00 | 79 | 1005.2 |
| 20260902181022 | 63 | 254 | 0.0 | 7.0 | 0.00 | 0.00 | 0.00 | 79 | 1005.2 |
| 20260902180520 | 63 | 218 | 2.0 | 8.0 | 0.00 | 0.00 | 0.00 | 77 | 1005.4 |
| 20260902180039 | 64 | 225 | 1.0 | 8.0 | 0.00 | 0.00 | 0.00 | 77 | 1005.4 |
| 20260902175522 | 64 | 180 | 1.0 | 10.0 | 0.00 | 0.00 | 0.00 | 76 | 1005.3 |
| 20260902175021 | 64 | 226 | 3.0 | 11.0 | 0.00 | 0.00 | 0.00 | 75 | 1005.3 |
| 20260902174548 | 64 | 178 | 3.0 | 11.0 | 0.00 | 0.00 | 0.00 | 75 | 1005.3 |
| 20260902174020 | 64 | 222 | 2.0 | 6.0 | 0.00 | 0.00 | 0.00 | 75 | 1005.3 |
| 20260902173521 | 63 | 15 | 0.0 | 4.0 | 0.00 | 0.00 | 0.00 | 77 | 1005.3 |
| 20260902173106 | 63 | 229 | 1.0 | 4.0 | 0.00 | 0.00 | 0.00 | 77 | 1005.4 |
| 20260902172521 | 63 | 237 | 1.0 | 5.0 | 0.00 | 0.00 | 0.00 | 78 | 1005.4 |
| 20260902172021 | 62 | 0 | 1.0 | 5.0 | 0.00 | 0.00 | 0.00 | 79 | 1005.4 |
| 20260902171542 | 62 | 223 | 1.0 | 5.0 | 0.00 | 0.00 | 0.00 | 80 | 1005.4 |
| 20260902171025 | 61 | 0 | 0.0 | 3.0 | 0.00 | 0.00 | 0.00 | 82 | 1005.5 |
| 20260902170521 | 61 | 234 | 1.0 | 3.0 | 0.00 | 0.00 | 0.00 | 82 | 1005.6 |
| 20260902170038 | 61 | 212 | 0.0 | 2.0 | 0.00 | 0.00 | 0.00 | 83 | 1005.6 |
| 20260902165524 | 60 | 0 | 1.0 | 2.0 | 0.00 | 0.00 | 0.00 | 82 | 1005.6 |
| 20260902165024 | 60 | 234 | 1.0 | 3.0 | 0.00 | 0.00 | 0.00 | 84 | 1005.7 |
| 20260902164536 | 60 | 204 | 0.0 | 3.0 | 0.00 | 0.00 | 0.00 | 84 | 1005.7 |
| 20260902164017 | 59 | 258 | 0.0 | 2.0 | 0.00 | 0.00 | 0.00 | 85 | 1005.7 |
| 20260902163520 | 59 | 0 | 0.0 | 2.0 | 0.00 | 0.00 | 0.00 | 85 | 1005.7 |
| 20260902163038 | 59 | 0 | 0.0 | 2.0 | 0.00 | 0.00 | 0.00 | 86 | 1005.7 |
| 20260902162522 | 59 | 240 | 0.0 | 2.0 | 0.00 | 0.00 | 0.00 | 86 | 1005.7 |
| 20260902162021 | 59 | 0 | 0.0 | 2.0 | 0.00 | 0.00 | 0.00 | 86 | 1005.8 |
| 20260902161538 | 59 | 241 | 0.0 | 0.0 | 0.00 | 0.00 | 0.00 | 87 | 1005.9 |
| 20260902161021 | 59 | 0 | 0.0 | 0.0 | 0.00 | 0.00 | 0.00 | 87 | 1006.0 |
| 20260902160523 | 58 | 0 | 0.0 | 0.0 | 0.00 | 0.00 | 0.00 | 87 | 1006.0 |
| 20260902160052 | 58 | 0 | 0.0 | 0.0 | 0.00 | 0.00 | 0.00 | 86 | 1006.0 |
| 20260902155522 | 58 | 0 | 0.0 | 2.0 | 0.00 | 0.00 | 0.00 | 86 | 1006.0 |
| 20260902155021 | 58 | 0 | 0.0 | 2.0 | 0.00 | 0.00 | 0.00 | 86 | 1006.1 |
| 20260902154543 | 58 | 0 | 0.0 | 2.0 | 0.00 | 0.00 | 0.00 | 87 | 1006.1 |
| 20260902154024 | 58 | 0 | 0.0 | 2.0 | 0.00 | 0.00 | 0.00 | 87 | 1006.3 |
| 20260902153517 | 57 | 0 | 0.0 | 2.0 | 0.00 | 0.00 | 0.00 | 87 | 1006.4 |
| 20260902153041 | 57 | 0 | 0.0 | 2.0 | 0.00 | 0.00 | 0.00 | 88 | 1006.4 |
| 20260902152518 | 57 | 0 | 0.0 | 0.0 | 0.00 | 0.00 | 0.00 | 88 | 1006.5 |
| 20260902152022 | 57 | 0 | 0.0 | 2.0 | 0.00 | 0.00 | 0.00 | 88 | 1006.5 |
| 20260902151535 | 57 | 0 | 0.0 | 2.0 | 0.00 | 0.00 | 0.00 | 88 | 1006.6 |
| 20260902151020 | 57 | 0 | 0.0 | 2.0 | 0.00 | 0.00 | 0.00 | 88 | 1006.6 |
| 20260902150521 | 57 | 0 | 0.0 | 2.0 | 0.00 | 0.00 | 0.00 | 89 | 1006.7 |
| 20260902150037 | 57 | 0 | 0.0 | 0.0 | 0.00 | 0.00 | 0.00 | 89 | 1006.8 |
| 20260902145521 | 57 | 0 | 0.0 | 0.0 | 0.00 | 0.00 | 0.00 | 89 | 1006.8 |
| 20260902145026 | 56 | 0 | 0.0 | 0.0 | 0.00 | 0.00 | 0.00 | 89 | 1007.0 |
| 20260902144539 | 56 | 0 | 0.0 | 0.0 | 0.00 | 0.00 | 0.00 | 89 | 1007.0 |
| 20260902144018 | 56 | 0 | 0.0 | 2.0 | 0.00 | 0.00 | 0.00 | 89 | 1007.1 |
| 20260902143519 | 56 | 0 | 0.0 | 2.0 | 0.00 | 0.00 | 0.00 | 89 | 1007.0 |
| 20260902143039 | 56 | 0 | 0.0 | 0.0 | 0.00 | 0.00 | 0.00 | 89 | 1007.1 |
| 20260902142525 | 56 | 0 | 0.0 | 0.0 | 0.00 | 0.00 | 0.00 | 89 | 1007.2 |
| 20260902142018 | 56 | 0 | 0.0 | 0.0 | 0.00 | 0.00 | 0.00 | 89 | 1007.1 |
| 20260902141548 | 56 | 0 | 0.0 | 0.0 | 0.00 | 0.00 | 0.00 | 89 | 1007.1 |
| 20260902141020 | 56 | 0 | 0.0 | 0.0 | 0.00 | 0.00 | 0.00 | 89 | 1007.1 |
| 20260902140518 | 56 | 0 | 0.0 | 0.0 | 0.00 | 0.00 | 0.00 | 89 | 1007.2 |
| 20260902140040 | 56 | 0 | 0.0 | 0.0 | 0.00 | 0.00 | 0.00 | 89 | 1007.4 |
| 20260902135520 | 56 | 0 | 0.0 | 2.0 | 0.00 | 0.00 | 0.00 | 89 | 1007.4 |
| 20260902135020 | 56 | 0 | 0.0 | 2.0 | 0.00 | 0.00 | 0.00 | 89 | 1007.4 |
| 20260902134540 | 56 | 0 | 0.0 | 0.0 | 0.00 | 0.00 | 0.00 | 89 | 1007.4 |
| 20260902134023 | 56 | 0 | 0.0 | 0.0 | 0.00 | 0.00 | 0.00 | 89 | 1007.5 |
| 20260902133521 | 56 | 0 | 0.0 | 0.0 | 0.00 | 0.00 | 0.00 | 89 | 1007.6 |
| 20260902133047 | 56 | 0 | 0.0 | 0.0 | 0.00 | 0.00 | 0.00 | 89 | 1007.6 |
| 20260902132525 | 56 | 0 | 0.0 | 0.0 | 0.00 | 0.00 | 0.00 | 89 | 1007.6 |
| 20260902132020 | 56 | 0 | 0.0 | 0.0 | 0.00 | 0.00 | 0.00 | 89 | 1007.5 |
| 20260902131548 | 55 | 0 | 0.0 | 0.0 | 0.00 | 0.00 | 0.00 | 89 | 1007.6 |
| 20260902131025 | 55 | 0 | 0.0 | 0.0 | 0.00 | 0.00 | 0.00 | 89 | 1007.7 |
| 20260902130521 | 55 | 0 | 0.0 | 0.0 | 0.00 | 0.00 | 0.00 | 89 | 1007.7 |
| 20260902130038 | 56 | 0 | 0.0 | 0.0 | 0.00 | 0.00 | 0.00 | 89 | 1007.6 |
| 20260902125526 | 56 | 0 | 0.0 | 0.0 | 0.00 | 0.00 | 0.00 | 88 | 1007.8 |
| 20260902125019 | 56 | 0 | 0.0 | 0.0 | 0.00 | 0.00 | 0.00 | 88 | 1007.8 |
| 20260902124549 | 56 | 0 | 0.0 | 0.0 | 0.00 | 0.00 | 0.00 | 88 | 1007.8 |
| 20260902124023 | 56 | 0 | 0.0 | 0.0 | 0.00 | 0.00 | 0.00 | 89 | 1007.9 |